CW1729 Weather Reports


Display with metric or nautical units.
time (UTC)temp
F
wind
direction
speed
MPH
gust
MPH
rain 1hr
in
rain 24hr
in
rain mn
in
humidity
%
barometer
mb
20180118191653 36 322 2.0 3.0 0.00 0.00 0.00 43 1014.6
20180118191153 36 304 3.0 3.0 0.00 0.00 0.00 47 1014.6
20180118190653 35 320 1.0 3.0 0.00 0.00 0.00 47 1014.9
20180118190153 35 325 1.0 3.0 0.00 0.00 0.00 47 1014.9
20180118185710 35 329 3.0 3.0 0.00 0.00 0.00 47 1014.9
20180118185153 35 336 2.0 3.0 0.00 0.00 0.00 48 1015.1
20180118184653 35 299 3.0 6.0 0.00 0.00 0.00 48 1015.1
20180118184152 34 343 1.0 6.0 0.00 0.00 0.00 48 1015.1
20180118183652 34 328 1.0 5.0 0.00 0.00 0.00 50 1015.3
20180118183152 34 344 5.0 6.0 0.00 0.00 0.00 50 1015.3
20180118182710 34 309 2.0 6.0 0.00 0.00 0.00 50 1015.3
20180118182152 34 292 6.0 6.0 0.00 0.00 0.00 50 1015.3
20180118181652 34 316 2.0 3.0 0.00 0.00 0.00 50 1015.3
20180118181152 34 349 0.0 6.0 0.00 0.00 0.00 50 1015.3
20180118180651 33 342 2.0 6.0 0.00 0.00 0.00 48 1015.8
20180118180151 33 325 2.0 6.0 0.00 0.00 0.00 48 1015.8
20180118175651 33 350 2.0 6.0 0.00 0.00 0.00 48 1015.8
20180118175151 33 332 2.0 7.0 0.00 0.00 0.00 50 1016.1
20180118174651 33 295 6.0 7.0 0.00 0.00 0.00 50 1016.1
20180118174151 32 350 6.0 6.0 0.00 0.00 0.00 50 1016.1
20180118173651 32 336 6.0 6.0 0.00 0.00 0.00 50 1016.5
20180118173209 32 326 1.0 6.0 0.00 0.01 0.00 50 1016.5
20180118172650 31 292 6.0 6.0 0.00 0.01 0.00 50 1016.5
20180118172150 31 299 2.0 7.0 0.00 0.01 0.00 48 1016.9
20180118171650 31 296 2.0 7.0 0.00 0.01 0.00 48 1016.9
20180118171150 30 332 7.0 7.0 0.00 0.01 0.00 48 1016.9
20180118170650 30 322 3.0 7.0 0.00 0.01 0.00 48 1017.4
20180118170149 29 260 5.0 7.0 0.00 0.01 0.00 48 1017.4
20180118165649 29 260 5.0 7.0 0.00 0.01 0.00 48 1017.4
20180118165149 29 288 2.0 8.0 0.00 0.01 0.00 48 1018.1
20180118164707 30 295 3.0 8.0 0.00 0.01 0.00 49 1018.1
20180118164149 30 339 5.0 6.0 0.00 0.01 0.00 52 1018.1
20180118163649 29 301 2.0 6.0 0.00 0.01 0.00 52 1018.4
20180118163149 29 340 6.0 6.0 0.00 0.01 0.00 52 1018.4
20180118162648 29 339 4.0 7.0 0.00 0.01 0.00 55 1018.4
20180118162206 28 305 2.0 7.0 0.00 0.01 0.00 55 1018.6
20180118161648 28 346 7.0 7.0 0.00 0.01 0.00 55 1018.6
20180118161148 28 336 7.0 7.0 0.00 0.01 0.00 56 1018.6
20180118160648 28 330 6.0 6.0 0.00 0.01 0.00 56 1019.0
20180118160148 28 329 2.0 3.0 0.00 0.01 0.00 55 1019.0
20180118155648 28 328 3.0 5.0 0.00 0.01 0.00 55 1019.0
20180118155148 28 312 2.0 6.0 0.00 0.01 0.00 55 1019.1
20180118154648 27 346 5.0 6.0 0.00 0.01 0.00 57 1019.1
20180118154147 27 346 2.0 5.0 0.00 0.01 0.00 57 1019.1
20180118153647 27 356 2.0 6.0 0.00 0.01 0.00 57 1019.1
20180118153147 27 325 2.0 8.0 0.00 0.01 0.00 57 1019.1
20180118152647 26 329 3.0 8.0 0.00 0.01 0.00 57 1019.1
20180118152147 26 332 8.0 9.0 0.00 0.01 0.00 57 1019.2
20180118151646 26 309 1.0 9.0 0.00 0.01 0.00 57 1019.2
20180118151147 26 309 9.0 9.0 0.00 0.01 0.00 57 1019.2
20180118150646 26 309 8.0 8.0 0.00 0.01 0.00 57 1019.4
20180118150146 26 340 1.0 5.0 0.00 0.01 0.00 59 1019.4
20180118145646 25 329 1.0 7.0 0.00 0.01 0.00 59 1019.4
20180118145146 25 340 2.0 8.0 0.00 0.01 0.00 59 1019.5
20180118144145 25 344 2.0 10.0 0.00 0.01 0.00 61 1019.5
20180118143645 25 320 4.0 10.0 0.00 0.01 0.00 59 1019.4
20180118143145 25 288 10.0 10.0 0.00 0.01 0.00 61 1019.4
20180118142645 25 357 3.0 7.0 0.00 0.01 0.00 61 1019.4
20180118142145 25 329 4.0 7.0 0.00 0.01 0.00 62 1019.4
20180118141645 25 320 4.0 4.0 0.00 0.01 0.00 62 1019.4
20180118141144 24 326 1.0 4.0 0.00 0.01 0.00 62 1019.4
20180118140702 24 306 3.0 8.0 0.00 0.01 0.00 62 1019.3
20180118140202 24 326 4.0 8.0 0.00 0.01 0.00 62 1019.3
20180118135644 24 320 8.0 8.0 0.00 0.01 0.00 62 1019.3
20180118135144 23 336 2.0 3.0 0.00 0.01 0.00 65 1019.5
20180118134701 23 308 1.0 8.0 0.00 0.01 0.00 65 1019.5
20180118134144 23 323 2.0 8.0 0.00 0.01 0.00 65 1019.5
20180118133644 22 350 2.0 8.0 0.00 0.01 0.00 68 1019.4
20180118133146 22 339 1.0 8.0 0.00 0.01 0.00 68 1019.4
20180118132701 22 296 8.0 8.0 0.00 0.01 0.00 68 1019.4
20180118132143 22 312 6.0 7.0 0.00 0.01 0.00 68 1019.2
20180118131643 21 353 3.0 6.0 0.00 0.01 0.00 68 1019.2
20180118131143 21 318 3.0 7.0 0.00 0.01 0.00 68 1019.2
20180118130643 21 340 6.0 7.0 0.00 0.01 0.00 68 1018.6
20180118130212 21 311 2.0 6.0 0.00 0.01 0.00 68 1018.6
20180118125700 21 337 3.0 8.0 0.00 0.01 0.00 68 1018.6
20180118125142 21 333 6.0 8.0 0.00 0.01 0.00 68 1018.5
20180118124642 20 344 7.0 7.0 0.00 0.01 0.00 68 1018.5
20180118124213 20 344 7.0 7.0 0.00 0.01 0.00 67 1018.5
20180118123642 20 346 2.0 8.0 0.00 0.01 0.00 67 1018.4
20180118123159 20 320 3.0 11.0 0.00 0.01 0.00 67 1018.4
20180118122642 20 323 1.0 12.0 0.00 0.01 0.00 67 1018.4
20180118122141 20 320 8.0 12.0 0.00 0.01 0.00 69 1018.4
20180118121641 20 329 5.0 6.0 0.00 0.01 0.00 69 1018.4
20180118121211 20 301 3.0 7.0 0.00 0.01 0.00 69 1018.4
20180118120641 20 305 6.0 7.0 0.00 0.01 0.00 69 1018.4
20180118120141 20 352 2.0 8.0 0.00 0.01 0.00 69 1018.4
20180118115658 20 320 4.0 8.0 0.00 0.01 0.00 69 1018.4
20180118115140 20 328 3.0 6.0 0.00 0.01 0.00 69 1018.8
20180118114641 20 288 2.0 8.0 0.00 0.01 0.00 69 1018.8
20180118114210 20 333 6.0 8.0 0.00 0.01 0.00 69 1018.8
20180118113640 20 311 3.0 5.0 0.00 0.01 0.00 69 1018.9
20180118113158 20 0 1.0 5.0 0.00 0.01 0.00 69 1018.9
20180118112640 20 311 2.0 7.0 0.00 0.01 0.00 69 1018.9
20180118112140 20 340 3.0 7.0 0.00 0.01 0.00 69 1019.0
20180118111709 20 335 7.0 7.0 0.00 0.01 0.00 69 1019.0
20180118111209 20 342 6.0 6.0 0.00 0.01 0.00 69 1019.0
20180118110710 20 323 2.0 5.0 0.00 0.01 0.00 69 1018.9
20180118110227 20 18 1.0 6.0 0.00 0.01 0.00 70 1018.9
20180118105709 20 326 1.0 6.0 0.00 0.01 0.00 70 1018.9
20180118105139 20 337 6.0 6.0 0.00 0.01 0.00 70 1018.9
20180118104709 20 349 2.0 5.0 0.00 0.01 0.00 70 1018.9
20180118104208 20 344 3.0 5.0 0.00 0.01 0.00 69 1018.9
20180118103708 20 326 5.0 5.0 0.00 0.01 0.00 69 1018.9
20180118103226 20 332 2.0 7.0 0.00 0.01 0.00 68 1018.9
20180118102708 20 311 1.0 7.0 0.00 0.01 0.00 68 1018.9
20180118102208 20 339 7.0 7.0 0.00 0.01 0.00 68 1018.9
20180118101708 20 350 2.0 10.0 0.00 0.01 0.00 68 1018.9
20180118101209 20 323 6.0 10.0 0.00 0.01 0.00 70 1018.9
20180118100708 20 325 10.0 10.0 0.00 0.01 0.00 70 1018.8
20180118100207 20 347 0.0 8.0 0.00 0.01 0.00 70 1018.8
20180118095708 20 296 2.0 8.0 0.00 0.01 0.00 70 1018.8
20180118095207 20 319 8.0 8.0 0.00 0.01 0.00 70 1018.4
20180118094707 20 299 1.0 5.0 0.00 0.01 0.00 70 1018.4
20180118094224 20 332 4.0 5.0 0.00 0.01 0.00 70 1018.4
20180118093707 20 323 1.0 5.0 0.00 0.01 0.00 69 1018.1
20180118093207 20 343 5.0 5.0 0.00 0.01 0.00 69 1018.1
20180118092706 20 329 4.0 6.0 0.00 0.01 0.00 69 1018.1
20180118092224 20 306 4.0 7.0 0.00 0.01 0.00 70 1017.5
20180118091706 20 326 6.0 7.0 0.00 0.01 0.00 70 1017.5
20180118091206 20 305 1.0 8.0 0.00 0.01 0.00 70 1017.5
20180118090706 20 325 2.0 8.0 0.00 0.01 0.00 70 1017.7
20180118090223 20 322 0.0 6.0 0.00 0.01 0.00 70 1017.7
20180118085705 20 322 5.0 6.0 0.00 0.01 0.00 70 1017.7
20180118085206 20 315 6.0 6.0 0.00 0.01 0.00 70 1018.4
20180118084706 20 340 3.0 7.0 0.00 0.01 0.00 70 1018.4
20180118084206 20 335 3.0 7.0 0.00 0.01 0.00 70 1018.4
20180118083723 20 356 1.0 3.0 0.00 0.01 0.00 70 1018.9
20180118083205 20 352 3.0 3.0 0.00 0.01 0.00 70 1018.9
20180118082705 20 323 0.0 5.0 0.00 0.01 0.00 69 1018.9
20180118082205 20 336 3.0 6.0 0.00 0.01 0.00 69 1019.2
20180118081704 20 301 2.0 6.0 0.00 0.01 0.00 69 1019.2
20180118081205 20 326 2.0 6.0 0.00 0.01 0.00 69 1019.2
20180118080704 20 326 2.0 6.0 0.00 0.01 0.00 70 1018.9
20180118080221 20 289 3.0 7.0 0.00 0.01 0.00 70 1018.9
20180118075704 20 1 2.0 7.0 0.00 0.01 0.00 70 1018.9
20180118075221 20 337 1.0 2.0 0.00 0.01 0.00 70 1019.6
20180118074704 20 17 0.0 5.0 0.00 0.01 0.00 70 1019.6
20180118074203 20 342 1.0 5.0 0.00 0.01 0.00 70 1019.6
20180118073703 20 0 0.0 2.0 0.00 0.01 0.00 70 1019.4
20180118073203 20 41 0.0 5.0 0.00 0.01 0.00 70 1019.4
20180118072703 20 64 1.0 5.0 0.00 0.01 0.00 70 1019.4
20180118072220 20 275 5.0 5.0 0.00 0.01 0.00 70 1018.3
20180118071703 20 320 3.0 5.0 0.00 0.01 0.00 70 1018.3
20180118071220 20 353 2.0 6.0 0.00 0.01 0.00 70 1018.3
20180118070702 20 337 0.0 6.0 0.00 0.01 0.00 70 1017.8
20180118070203 21 0 1.0 4.0 0.00 0.01 0.00 70 1017.8
20180118065702 21 21 3.0 5.0 0.00 0.01 0.00 70 1017.8
20180118065202 21 285 4.0 5.0 0.00 0.01 0.00 70 1018.5
20180118064702 21 328 2.0 10.0 0.00 0.01 0.00 70 1018.5
20180118064202 21 336 3.0 10.0 0.00 0.01 0.00 68 1018.5
20180118063719 21 306 2.0 2.0 0.00 0.01 0.00 68 1019.8
20180118063202 21 10 2.0 2.0 0.00 0.01 0.00 68 1019.8
20180118062701 21 0 0.0 2.0 0.00 0.01 0.00 68 1019.8
20180118062201 21 344 2.0 3.0 0.00 0.01 0.00 68 1020.3
20180118061701 21 344 2.0 4.0 0.00 0.01 0.00 68 1020.3
20180118061201 21 335 1.0 4.0 0.00 0.01 0.00 68 1020.3
20180118060701 21 281 4.0 5.0 0.00 0.01 0.00 67 1020.8
20180118060219 21 335 3.0 5.0 0.00 0.01 0.00 67 1020.8
20180118055701 22 17 1.0 3.0 0.00 0.01 0.00 65 1020.8
20180118055200 22 332 2.0 3.0 0.00 0.01 0.00 65 1020.7
20180118054700 22 320 3.0 5.0 0.00 0.01 0.00 65 1020.7
20180118054200 22 311 1.0 7.0 0.00 0.01 0.00 65 1020.7
20180118053700 22 339 0.0 7.0 0.00 0.01 0.00 65 1020.5
20180118053200 23 339 5.0 6.0 0.00 0.01 0.00 65 1020.5
20180118052659 23 339 1.0 3.0 0.00 0.01 0.00 65 1020.5
20180118052159 23 343 3.0 3.0 0.00 0.01 0.00 65 1021.0
20180118051659 23 326 1.0 10.0 0.00 0.01 0.00 65 1021.0
20180118051159 23 230 3.0 10.0 0.00 0.01 0.00 65 1021.0
20180118050659 23 325 10.0 13.0 0.00 0.01 0.00 65 1021.0
20180118050159 23 76 1.0 13.0 0.00 0.01 0.00 65 1021.0
20180118045658 23 344 1.0 8.0 0.00 0.01 0.00 65 1021.0
20180118045158 23 318 1.0 8.0 0.00 0.01 0.01 65 1021.5
20180118044658 23 319 8.0 8.0 0.00 0.01 0.01 65 1021.5
20180118044158 23 0 1.0 8.0 0.00 0.01 0.01 65 1021.5
20180118043658 23 337 6.0 8.0 0.00 0.01 0.01 65 1021.3
20180118043158 23 359 1.0 3.0 0.00 0.01 0.01 66 1021.3
20180118042658 23 312 3.0 3.0 0.00 0.01 0.01 66 1021.3
20180118042158 23 336 2.0 3.0 0.00 0.01 0.01 66 1021.5
20180118041658 23 332 1.0 3.0 0.00 0.01 0.01 66 1021.5
20180118041216 23 326 3.0 3.0 0.00 0.01 0.01 66 1021.5
20180118040658 23 61 0.0 2.0 0.00 0.01 0.01 64 1021.5
20180118040157 23 18 0.0 2.0 0.00 0.01 0.01 64 1021.5
20180118035657 23 18 2.0 2.0 0.00 0.01 0.01 64 1021.5
20180118035157 23 353 2.0 5.0 0.00 0.01 0.01 65 1021.5
20180118034657 23 302 1.0 5.0 0.00 0.01 0.01 65 1021.5
20180118034157 23 13 5.0 5.0 0.00 0.01 0.01 65 1021.5
20180118033656 23 337 1.0 5.0 0.00 0.01 0.01 65 1021.6
20180118033156 23 337 1.0 5.0 0.00 0.01 0.01 65 1021.6
20180118032656 23 17 5.0 5.0 0.00 0.01 0.01 65 1021.6
20180118032156 24 256 0.0 3.0 0.00 0.01 0.01 64 1021.5
20180118031657 24 328 1.0 2.0 0.00 0.01 0.01 64 1021.5
20180118031156 24 332 1.0 3.0 0.00 0.01 0.01 64 1021.5
20180118030713 24 1 0.0 3.0 0.00 0.01 0.01 64 1021.9
20180118030155 24 313 3.0 3.0 0.00 0.01 0.01 64 1021.9
20180118025712 24 332 3.0 3.0 0.00 0.01 0.01 64 1021.9
20180118025155 25 0 0.0 2.0 0.00 0.01 0.01 63 1022.0
20180118024655 25 337 0.0 5.0 0.00 0.01 0.01 63 1022.0
20180118024212 25 332 0.0 6.0 0.00 0.01 0.01 63 1022.0
20180118023655 25 342 0.0 6.0 0.00 0.01 0.01 61 1021.8
20180118023154 25 56 6.0 6.0 0.00 0.01 0.01 61 1021.8
20180118022655 25 330 2.0 2.0 0.00 0.01 0.01 61 1021.8
20180118022154 25 35 0.0 2.0 0.00 0.01 0.01 61 1021.9
20180118021712 25 18 2.0 3.0 0.00 0.01 0.01 61 1021.9
20180118021154 25 38 1.0 3.0 0.00 0.01 0.01 61 1021.9
20180118020654 25 44 2.0 3.0 0.00 0.01 0.01 61 1021.9
20180118020154 25 37 1.0 2.0 0.00 0.01 0.01 61 1021.9
20180118015654 25 353 2.0 5.0 0.00 0.01 0.01 61 1021.9
20180118015153 25 299 2.0 5.0 0.00 0.01 0.01 61 1022.1
20180118014653 25 89 5.0 7.0 0.00 0.01 0.01 61 1022.1
20180118014153 25 340 2.0 7.0 0.00 0.01 0.01 61 1022.1
20180118013653 25 88 6.0 6.0 0.00 0.01 0.01 61 1021.9
20180118013210 25 302 0.0 6.0 0.00 0.01 0.01 62 1021.9
20180118012711 25 340 1.0 6.0 0.00 0.01 0.01 61 1021.9
20180118012153 25 347 6.0 6.0 0.00 0.01 0.01 61 1022.0
20180118011652 25 20 1.0 6.0 0.00 0.01 0.01 61 1022.0
20180118011152 25 89 2.0 6.0 0.00 0.01 0.01 62 1022.0
20180118010652 25 126 6.0 6.0 0.00 0.01 0.01 62 1021.8
20180118010152 25 69 4.0 6.0 0.00 0.01 0.01 62 1021.8
20180118005652 25 28 1.0 6.0 0.00 0.01 0.01 62 1021.8
20180118005151 25 329 3.0 6.0 0.00 0.01 0.01 62 1022.2
20180118004651 25 99 1.0 6.0 0.00 0.01 0.01 62 1022.2
20180118004152 25 0 1.0 5.0 0.00 0.01 0.01 61 1022.2
20180118003651 25 0 2.0 11.0 0.00 0.01 0.01 61 1022.3
20180118003151 25 322 5.0 11.0 0.00 0.01 0.01 61 1022.3
20180118002651 25 326 11.0 11.0 0.00 0.01 0.01 61 1022.3
20180118002209 25 353 1.0 2.0 0.00 0.01 0.01 61 1022.2
20180118001651 25 25 2.0 2.0 0.00 0.01 0.01 61 1022.2
20180118001208 25 90 1.0 2.0 0.00 0.01 0.01 59 1022.2
20180118000708 25 83 1.0 4.0 0.00 0.01 0.01 59 1022.3
20180118000150 25 54 2.0 4.0 0.00 0.01 0.01 61 1022.3
20180117235650 25 35 2.0 2.0 0.00 0.01 0.01 61 1022.3
20180117235150 25 7 1.0 1.0 0.00 0.01 0.01 61 1022.4
20180117234650 25 10 1.0 1.0 0.00 0.01 0.01 63 1022.4
20180117234150 25 11 0.0 1.0 0.00 0.01 0.01 63 1022.4
20180117233649 25 0 1.0 3.0 0.00 0.01 0.01 62 1022.4
20180117233150 25 112 0.0 3.0 0.00 0.01 0.01 61 1022.4
20180117232649 25 31 1.0 2.0 0.00 0.01 0.01 61 1022.4
20180117232149 25 295 2.0 2.0 0.00 0.01 0.01 61 1022.6
20180117231649 25 11 1.0 2.0 0.00 0.01 0.01 61 1022.6
20180117231206 25 328 2.0 2.0 0.00 0.01 0.01 62 1022.6
20180117230649 25 313 1.0 2.0 0.00 0.01 0.01 61 1022.7
20180117230148 25 0 0.0 6.0 0.00 0.01 0.01 61 1022.7
20180117225648 25 323 0.0 6.0 0.00 0.01 0.01 61 1022.7
20180117225206 25 330 0.0 6.0 0.00 0.01 0.01 61 1022.6
20180117224648 25 332 1.0 6.0 0.00 0.01 0.01 62 1022.6
20180117224148 25 326 6.0 6.0 0.00 0.01 0.01 62 1022.6
20180117223648 25 270 3.0 5.0 0.00 0.01 0.01 64 1022.2
20180117223147 25 278 5.0 5.0 0.00 0.01 0.01 64 1022.2
20180117222648 25 344 3.0 3.0 0.00 0.01 0.01 64 1022.2
20180117222147 25 0 2.0 6.0 0.00 0.01 0.01 64 1022.3
20180117221647 25 52 1.0 6.0 0.00 0.01 0.01 62 1022.3
20180117221147 25 34 2.0 5.0 0.00 0.01 0.01 63 1022.3
20180117220647 25 328 2.0 5.0 0.00 0.01 0.01 63 1022.5
20180117220147 25 61 2.0 2.0 0.00 0.01 0.01 63 1022.5
20180117215647 25 0 2.0 2.0 0.00 0.01 0.01 63 1022.5
20180117215146 25 0 1.0 2.0 0.00 0.01 0.01 62 1022.5
20180117214646 25 291 0.0 2.0 0.00 0.01 0.01 62 1022.5
20180117214146 25 326 2.0 5.0 0.00 0.01 0.01 62 1022.5
20180117213646 25 20 1.0 5.0 0.00 0.01 0.01 61 1022.5
20180117213146 25 329 5.0 5.0 0.00 0.01 0.01 61 1022.5
20180117212646 25 294 3.0 6.0 0.00 0.01 0.01 61 1022.5
20180117212145 25 312 5.0 6.0 0.00 0.01 0.01 61 1022.7
20180117211646 25 0 0.0 5.0 0.00 0.01 0.01 60 1022.7
20180117211145 25 346 1.0 3.0 0.00 0.01 0.01 58 1022.7
20180117210645 25 0 3.0 5.0 0.00 0.01 0.01 58 1022.5
20180117210151 25 17 1.0 10.0 0.00 0.01 0.01 58 1022.5
20180117205701 26 309 2.0 10.0 0.00 0.01 0.01 60 1022.5
20180117205219 26 340 1.0 5.0 0.00 0.01 0.01 60 1022.6
20180117204701 26 0 2.0 4.0 0.00 0.01 0.01 60 1022.6
20180117204201 26 332 2.0 5.0 0.00 0.01 0.01 60 1022.6
20180117203701 26 340 1.0 5.0 0.00 0.01 0.01 58 1022.6
20180117203201 26 1 2.0 4.0 0.00 0.01 0.01 61 1022.6
20180117202701 26 349 2.0 6.0 0.00 0.01 0.01 61 1022.6
20180117202201 26 333 4.0 7.0 0.00 0.01 0.01 60 1022.8
20180117201701 26 325 2.0 7.0 0.00 0.01 0.01 60 1022.8
20180117201200 26 330 5.0 5.0 0.00 0.01 0.01 60 1022.8
20180117200700 26 342 5.0 5.0 0.00 0.01 0.01 60 1022.8
20180117200200 26 319 1.0 3.0 0.00 0.01 0.01 60 1022.8
20180117195159 26 76 3.0 6.0 0.00 0.01 0.01 60 1022.9
20180117194659 26 325 5.0 6.0 0.00 0.01 0.01 61 1022.9
20180117194159 26 329 6.0 6.0 0.00 0.01 0.01 62 1022.9
20180117193717 26 0 2.0 3.0 0.00 0.01 0.01 63 1023.0
20180117193159 26 313 3.0 3.0 0.00 0.01 0.01 64 1023.0
20180117192659 26 335 3.0 3.0 0.00 0.01 0.01 63 1023.0
20180117192159 26 342 2.0 2.0 0.00 0.01 0.01 63 1023.1